| time (UTC) | temp F | wind direction | speed knots | gust knots | rain 1hr in | rain 24hr in | rain mn in | humidity % | barometer mb |
| 20260502212919 | 66 | 237 | 0.0 | 1.7 | 0.00 | 0.00 | 0.00 | 76 | 1016.1 |
| 20260502212019 | 67 | 229 | 0.0 | 4.3 | 0.00 | 0.00 | 0.00 | 75 | 1016.0 |
| 20260502211119 | 67 | 218 | 0.0 | 0.9 | 0.00 | 0.00 | 0.00 | 75 | 1015.9 |
| 20260502210219 | 67 | 233 | 0.0 | 3.5 | 0.00 | 0.00 | 0.00 | 75 | 1015.8 |
| 20260502205319 | 67 | 213 | 0.0 | 2.6 | 0.00 | 0.00 | 0.00 | 75 | 1015.8 |
| 20260502204419 | 67 | 0 | 0.9 | 0.0 | 0.00 | 0.00 | 0.00 | 75 | 1015.6 |
| 20260502203519 | 68 | 242 | 0.9 | 7.0 | 0.00 | 0.00 | 0.00 | 74 | 1015.6 |
| 20260502202619 | 68 | 263 | 0.9 | 6.1 | 0.00 | 0.00 | 0.00 | 74 | 1015.5 |
| 20260502201719 | 68 | 254 | 0.9 | 5.2 | 0.00 | 0.00 | 0.00 | 74 | 1015.5 |
| 20260502200819 | 68 | 253 | 0.0 | 4.3 | 0.00 | 0.00 | 0.00 | 74 | 1015.3 |
| 20260502195919 | 68 | 243 | 0.9 | 6.1 | 0.00 | 0.00 | 0.00 | 74 | 1015.3 |
| 20260502195019 | 68 | 257 | 0.9 | 7.0 | 0.00 | 0.00 | 0.00 | 74 | 1015.3 |
| 20260502194120 | 68 | 245 | 1.7 | 7.0 | 0.00 | 0.00 | 0.00 | 74 | 1015.1 |
| 20260502193219 | 69 | 245 | 0.9 | 7.8 | 0.00 | 0.00 | 0.00 | 74 | 1015.0 |
| 20260502192319 | 69 | 248 | 0.9 | 7.8 | 0.00 | 0.00 | 0.00 | 73 | 1014.9 |
| 20260502191419 | 69 | 237 | 1.7 | 7.8 | 0.00 | 0.00 | 0.00 | 72 | 1014.9 |
| 20260502190519 | 70 | 240 | 1.7 | 8.7 | 0.00 | 0.00 | 0.00 | 72 | 1014.8 |
| 20260502185640 | 70 | 240 | 1.7 | 7.0 | 0.00 | 0.00 | 0.00 | 72 | 1014.8 |
| 20260502184719 | 70 | 245 | 2.6 | 9.6 | 0.00 | 0.00 | 0.00 | 72 | 1014.7 |
| 20260502183819 | 70 | 242 | 4.3 | 8.7 | 0.00 | 0.00 | 0.00 | 72 | 1014.9 |
| 20260502182919 | 71 | 242 | 3.5 | 10.4 | 0.00 | 0.00 | 0.00 | 71 | 1014.7 |
| 20260502182019 | 72 | 240 | 2.6 | 7.0 | 0.00 | 0.00 | 0.00 | 70 | 1014.8 |
| 20260502181140 | 72 | 239 | 2.6 | 7.8 | 0.00 | 0.00 | 0.00 | 70 | 1014.9 |
| 20260502180219 | 72 | 231 | 1.7 | 10.4 | 0.00 | 0.00 | 0.00 | 69 | 1014.9 |
| 20260502164119 | 72 | 258 | 4.3 | 10.4 | 0.00 | 0.00 | 0.00 | 70 | 1015.1 |
| 20260502163218 | 72 | 254 | 6.1 | 11.3 | 0.00 | 0.00 | 0.00 | 71 | 1015.2 |
| 20260502162319 | 72 | 264 | 5.2 | 12.2 | 0.00 | 0.00 | 0.00 | 70 | 1015.3 |
| 20260502161418 | 72 | 275 | 3.5 | 9.6 | 0.00 | 0.00 | 0.00 | 70 | 1015.2 |
| 20260502160519 | 73 | 302 | 1.7 | 8.7 | 0.00 | 0.00 | 0.00 | 69 | 1015.1 |
| 20260502152018 | 72 | 316 | 3.5 | 7.8 | 0.00 | 0.00 | 0.00 | 69 | 1015.6 |
| 20260502151118 | 72 | 279 | 3.5 | 9.6 | 0.00 | 0.00 | 0.00 | 70 | 1015.9 |
| 20260502150240 | 72 | 288 | 3.5 | 7.8 | 0.00 | 0.00 | 0.00 | 70 | 1015.8 |
| 20260502130540 | 74 | 237 | 1.7 | 3.5 | 0.00 | 0.00 | 0.00 | 61 | 1016.8 |
| 20260502122918 | 73 | 262 | 0.0 | 7.0 | 0.00 | 0.00 | 0.00 | 63 | 1017.2 |
| 20260502122018 | 73 | 306 | 0.0 | 0.9 | 0.00 | 0.00 | 0.00 | 63 | 1017.3 |
| 20260502121139 | 73 | 177 | 0.0 | 2.6 | 0.00 | 0.00 | 0.00 | 64 | 1017.4 |
| 20260502120218 | 73 | 271 | 0.0 | 6.1 | 0.00 | 0.00 | 0.00 | 63 | 1017.3 |
| 20260502115318 | 72 | 126 | 0.0 | 0.9 | 0.00 | 0.00 | 0.00 | 63 | 1017.3 |
| 20260502114439 | 72 | 109 | 0.0 | 0.9 | 0.00 | 0.00 | 0.00 | 63 | 1017.3 |
| 20260502113518 | 72 | 192 | 0.0 | 1.7 | 0.00 | 0.00 | 0.00 | 63 | 1017.4 |
| 20260502112618 | 72 | 259 | 0.0 | 1.7 | 0.00 | 0.00 | 0.00 | 63 | 1017.3 |
| 20260502111718 | 72 | 277 | 0.0 | 1.7 | 0.00 | 0.00 | 0.00 | 64 | 1017.4 |
| 20260502110818 | 72 | 275 | 0.0 | 1.7 | 0.00 | 0.00 | 0.00 | 64 | 1017.6 |
| 20260502105918 | 72 | 234 | 0.0 | 0.9 | 0.00 | 0.00 | 0.00 | 64 | 1017.7 |
| 20260502105018 | 72 | 129 | 0.0 | 2.6 | 0.00 | 0.00 | 0.00 | 64 | 1018.0 |
| 20260502104118 | 72 | 131 | 0.0 | 2.6 | 0.00 | 0.00 | 0.00 | 64 | 1018.0 |
| 20260502103218 | 71 | 0 | 0.0 | 0.0 | 0.00 | 0.00 | 0.00 | 66 | 1018.1 |
| 20260502102318 | 70 | 0 | 0.0 | 0.0 | 0.00 | 0.00 | 0.00 | 65 | 1018.1 |
| 20260502101417 | 70 | 0 | 0.0 | 0.0 | 0.00 | 0.00 | 0.00 | 67 | 1018.1 |
| 20260502100518 | 69 | 266 | 0.0 | 3.5 | 0.00 | 0.00 | 0.00 | 68 | 1018.4 |
| 20260502091138 | 68 | 0 | 0.0 | 0.0 | 0.00 | 0.00 | 0.00 | 67 | 1018.1 |
| 20260502090218 | 67 | 25 | 0.0 | 3.5 | 0.00 | 0.00 | 0.00 | 68 | 1018.1 |
| 20260502071417 | 64 | 0 | 0.0 | 0.0 | 0.00 | 0.00 | 0.00 | 72 | 1017.9 |
| 20260502070517 | 65 | 0 | 0.0 | 0.0 | 0.00 | 0.00 | 0.00 | 72 | 1017.8 |
| 20260502065617 | 65 | 0 | 0.0 | 0.0 | 0.00 | 0.00 | 0.00 | 72 | 1017.8 |
| 20260502064717 | 65 | 0 | 0.0 | 0.0 | 0.00 | 0.00 | 0.00 | 71 | 1017.7 |
| 20260502063817 | 64 | 0 | 0.0 | 0.0 | 0.00 | 0.00 | 0.00 | 71 | 1017.6 |
| 20260502062917 | 64 | 0 | 0.0 | 0.0 | 0.00 | 0.00 | 0.00 | 71 | 1017.8 |
| 20260502062017 | 64 | 0 | 0.0 | 0.0 | 0.00 | 0.00 | 0.00 | 71 | 1017.7 |
| 20260502061117 | 64 | 0 | 0.0 | 0.0 | 0.00 | 0.00 | 0.00 | 71 | 1017.6 |
| 20260502060217 | 64 | 0 | 0.0 | 0.0 | 0.00 | 0.00 | 0.00 | 72 | 1017.7 |
| 20260502055338 | 64 | 0 | 0.0 | 0.0 | 0.00 | 0.00 | 0.00 | 72 | 1017.4 |
| 20260502054417 | 64 | 0 | 0.0 | 0.0 | 0.00 | 0.00 | 0.00 | 72 | 1017.4 |
| 20260502053517 | 64 | 336 | 0.0 | 2.6 | 0.00 | 0.00 | 0.00 | 72 | 1017.4 |
| 20260502052617 | 65 | 0 | 0.0 | 0.0 | 0.00 | 0.00 | 0.00 | 71 | 1017.2 |
| 20260502051717 | 64 | 0 | 0.0 | 0.0 | 0.00 | 0.00 | 0.00 | 72 | 1017.1 |
| 20260502050838 | 64 | 0 | 0.0 | 0.0 | 0.00 | 0.00 | 0.00 | 71 | 1017.2 |
| 20260502045938 | 64 | 0 | 0.0 | 0.0 | 0.00 | 0.00 | 0.00 | 72 | 1017.2 |
| 20260502045016 | 64 | 0 | 0.0 | 0.0 | 0.00 | 0.00 | 0.00 | 72 | 1017.3 |
| 20260502044117 | 64 | 0 | 0.0 | 0.0 | 0.00 | 0.00 | 0.00 | 72 | 1017.3 |
| 20260502043216 | 64 | 337 | 0.0 | 1.7 | 0.00 | 0.00 | 0.00 | 72 | 1017.4 |
| 20260502042316 | 64 | 0 | 0.0 | 0.0 | 0.00 | 0.00 | 0.00 | 73 | 1017.4 |
| 20260502041438 | 64 | 0 | 0.0 | 0.0 | 0.00 | 0.00 | 0.00 | 73 | 1017.4 |
| 20260502040516 | 64 | 336 | 0.0 | 0.9 | 0.00 | 0.00 | 0.00 | 72 | 1017.3 |
| 20260502035616 | 64 | 0 | 0.0 | 0.0 | 0.00 | 0.00 | 0.00 | 72 | 1017.4 |
| 20260502034716 | 64 | 0 | 0.0 | 0.0 | 0.00 | 0.00 | 0.00 | 72 | 1017.5 |
| 20260502033816 | 64 | 313 | 0.0 | 2.6 | 0.00 | 0.00 | 0.00 | 71 | 1017.6 |
| 20260502032916 | 65 | 313 | 0.0 | 0.9 | 0.00 | 0.00 | 0.00 | 72 | 1017.6 |
| 20260502032037 | 65 | 0 | 0.0 | 0.0 | 0.00 | 0.00 | 0.00 | 71 | 1017.6 |
| 20260502031116 | 65 | 300 | 0.0 | 0.9 | 0.00 | 0.00 | 0.00 | 70 | 1017.5 |
| 20260502030216 | 66 | 300 | 0.0 | 1.7 | 0.00 | 0.00 | 0.00 | 70 | 1017.7 |
| 20260502025316 | 66 | 0 | 0.0 | 0.0 | 0.00 | 0.00 | 0.00 | 71 | 1017.6 |
| 20260502024416 | 66 | 0 | 0.0 | 0.0 | 0.00 | 0.00 | 0.00 | 70 | 1017.7 |
| 20260502023516 | 66 | 0 | 0.0 | 0.0 | 0.00 | 0.00 | 0.00 | 69 | 1017.6 |
| 20260502022616 | 66 | 300 | 0.0 | 0.9 | 0.00 | 0.00 | 0.00 | 68 | 1017.7 |
| 20260502021716 | 66 | 0 | 0.0 | 0.0 | 0.00 | 0.00 | 0.00 | 68 | 1017.6 |
| 20260502020816 | 66 | 300 | 0.0 | 0.9 | 0.00 | 0.00 | 0.00 | 67 | 1017.7 |
| 20260502015937 | 66 | 0 | 0.0 | 0.0 | 0.00 | 0.00 | 0.00 | 67 | 1017.8 |
| 20260502015016 | 66 | 300 | 0.0 | 0.9 | 0.00 | 0.00 | 0.00 | 67 | 1017.9 |
| 20260502014116 | 66 | 0 | 0.0 | 0.0 | 0.00 | 0.00 | 0.00 | 67 | 1017.9 |
| 20260502013216 | 66 | 300 | 0.0 | 0.9 | 0.00 | 0.00 | 0.00 | 67 | 1018.0 |
| 20260502012316 | 66 | 300 | 0.0 | 0.9 | 0.00 | 0.00 | 0.00 | 67 | 1018.2 |
| 20260502011437 | 66 | 300 | 0.0 | 0.9 | 0.00 | 0.00 | 0.00 | 67 | 1018.1 |
| 20260502010516 | 66 | 0 | 0.0 | 0.0 | 0.00 | 0.00 | 0.00 | 67 | 1018.4 |
| 20260502005616 | 66 | 300 | 0.0 | 0.9 | 0.00 | 0.00 | 0.00 | 67 | 1018.4 |
| 20260502004716 | 66 | 300 | 0.0 | 1.7 | 0.00 | 0.00 | 0.00 | 68 | 1018.6 |
| 20260502003816 | 66 | 300 | 0.0 | 0.9 | 0.00 | 0.00 | 0.00 | 68 | 1018.7 |
| 20260502002916 | 66 | 308 | 0.0 | 1.7 | 0.00 | 0.00 | 0.00 | 68 | 1018.8 |
| 20260502002016 | 66 | 315 | 0.0 | 1.7 | 0.00 | 0.00 | 0.00 | 68 | 1019.0 |
| 20260502001116 | 66 | 315 | 0.0 | 1.7 | 0.00 | 0.00 | 0.00 | 68 | 1019.0 |
| 20260502000237 | 66 | 316 | 0.0 | 0.9 | 0.00 | 0.00 | 0.00 | 68 | 1018.9 |
| 20260501235316 | 66 | 316 | 1.7 | 4.3 | 0.00 | 0.00 | 0.00 | 69 | 1018.9 |
| 20260501234416 | 66 | 303 | 0.0 | 4.3 | 0.00 | 0.00 | 0.00 | 68 | 1019.2 |
| 20260501233537 | 66 | 252 | 0.0 | 1.7 | 0.00 | 0.00 | 0.00 | 69 | 1019.3 |
| 20260501232616 | 66 | 252 | 0.0 | 0.9 | 0.00 | 0.00 | 0.00 | 69 | 1019.2 |
| 20260501231716 | 66 | 252 | 0.0 | 1.7 | 0.00 | 0.00 | 0.00 | 69 | 1019.3 |
| 20260501230816 | 66 | 249 | 0.0 | 2.6 | 0.00 | 0.00 | 0.00 | 69 | 1019.3 |
| 20260501225937 | 66 | 248 | 0.9 | 3.5 | 0.00 | 0.00 | 0.00 | 68 | 1019.0 |
| 20260501225016 | 66 | 248 | 0.9 | 4.3 | 0.00 | 0.00 | 0.00 | 68 | 1019.2 |
| 20260501224115 | 66 | 246 | 0.9 | 3.5 | 0.00 | 0.00 | 0.00 | 68 | 1019.1 |
| 20260501223216 | 66 | 247 | 0.9 | 2.6 | 0.00 | 0.00 | 0.00 | 67 | 1019.0 |
| 20260501222316 | 67 | 251 | 0.9 | 2.6 | 0.00 | 0.00 | 0.00 | 67 | 1019.0 |
| 20260501221416 | 67 | 262 | 0.9 | 3.5 | 0.00 | 0.00 | 0.00 | 66 | 1018.9 |
| 20260501220515 | 67 | 244 | 0.9 | 5.2 | 0.00 | 0.00 | 0.00 | 66 | 1018.8 |
| 20260501215615 | 67 | 231 | 0.9 | 3.5 | 0.00 | 0.00 | 0.00 | 65 | 1018.6 |
| 20260501214715 | 68 | 228 | 0.9 | 2.6 | 0.00 | 0.00 | 0.00 | 65 | 1018.7 |
| 20260501213836 | 68 | 241 | 1.7 | 3.5 | 0.00 | 0.00 | 0.00 | 64 | 1018.9 |